Las Americas, Dominican Republic

4:37 PM AST on March 24, 2017 (GMT -0400)
Las Americas International Airport

Weather History for MDSD - October, 2012

Change the Weather History Date:

Saturday, October 6, 2012

  Actual Average Record
Temperature  
Mean Temperature 80 °F -  
Max Temperature 90 °F 88 °F 92 °F (2015)
Min Temperature 71 °F 72 °F 69 °F (2004)
Cooling Degree Days 16    
Growing Degree Days 30 (Base 50)    
Moisture  
Dew Point 74 °F    
Average Humidity 83    
Maximum Humidity 94    
Minimum Humidity 59    
Precipitation  
Precipitation 0.55 in 0.18 in - ()
Sea Level Pressure  
Sea Level Pressure 29.81 in    
Wind  
Wind Speed 4 mph ()    
Max Wind Speed 8 mph    
Max Gust Speed -    
Visibility 6.5 miles    
Events Rain , Thunderstorm    
Averages and records for this station are not official NWS values.
T = Trace of Precipitation, MM = Missing Value Source: Averaged Metar Reports

Daily Weather History Graph

Daily Weather History Graph

Search for Another Location

Airport or City:

Trip Planner

Search our weather history database for the weather conditions in past years. The results will help you decide how hot, cold, wet, or windy it might be!

Date:

Astronomy

Oct. 06, 2012 Rise Set
Actual Time 6:30 AM AST 6:22 PM AST
Civil Twilight 6:08 AM AST 6:44 PM AST
Nautical Twilight 5:43 AM AST 7:09 PM AST
Astronomical Twilight 5:17 AM AST 7:35 PM AST
Moon 11:10 PM AST (10/6) 11:45 AM AST (10/6)
Length of Visible Light 12h 36m
Length of Day
11h 52m
Waning Gibbous, 65% of the Moon is Illuminated
Oct 6
Waning Gibbous
Oct 8
Last Quarter
Oct 15
New
Oct 21
First Quarter
Oct 29
Full

Hourly Weather History & Observations

Time (AST) Temp. Heat Index Dew Point Humidity Pressure Visibility Wind Dir Wind Speed Gust Speed Precip Events Conditions
12:00 AM 75.2 °F - 71.6 °F 89% 29.86 in 6.2 mi Calm Calm - N/A   Partly Cloudy
1:00 AM 75.2 °F - 71.6 °F 89% 29.83 in 6.2 mi Calm Calm - N/A   Partly Cloudy
2:00 AM 75.2 °F - 71.6 °F 89% 29.83 in 6.2 mi NNE 4.6 mph - N/A   Partly Cloudy
3:00 AM 73.4 °F - 71.6 °F 94% 29.74 in 6.2 mi NNE 4.6 mph - N/A   Partly Cloudy
4:00 AM 73.4 °F - 71.6 °F 94% 29.80 in 6.2 mi North 4.6 mph - N/A   Partly Cloudy
5:00 AM 73.4 °F - 69.8 °F 88% 29.80 in 6.2 mi NNE 6.9 mph - N/A   Partly Cloudy
6:00 AM 71.6 °F - 69.8 °F 94% 29.80 in 6.2 mi NNE 6.9 mph - N/A   Partly Cloudy
7:00 AM 71.6 °F - 69.8 °F 94% 29.83 in 6.2 mi Calm Calm - N/A   Scattered Clouds
8:00 AM 73 °F - 70 °F 87% 29.85 in 10 mi North 4.5 mph - -   Partly Cloudy
8:00 AM 73.4 °F - 69.8 °F 88% 29.83 in 6.2 mi North 4.6 mph - N/A   Partly Cloudy
9:00 AM 78.8 °F - 73.4 °F 83% 29.86 in 6.2 mi North 4.6 mph - N/A   Scattered Clouds
11:00 AM 86 °F - 77 °F 68% 29.86 in 10 mi SW 4.5 mph - -   Mostly Cloudy
12:00 PM 86.0 °F 95.1 °F 75.2 °F 70% 29.83 in 6.2 mi SW 6.9 mph - N/A   Scattered Clouds
1:00 PM 89.6 °F 102.2 °F 77.0 °F 66% 29.80 in 6.2 mi SSW 6.9 mph - N/A   Scattered Clouds
2:00 PM 89 °F - 76 °F 59% 29.83 in 10 mi SSW 6.7 mph - -   Mostly Cloudy
2:00 PM 89.6 °F 102.2 °F 77.0 °F 66% 29.80 in 6.2 mi SSW 6.9 mph - N/A   Scattered Clouds
3:00 PM 87.8 °F 99.7 °F 77.0 °F 70% 29.77 in 5.0 mi South 6.9 mph - N/A   Scattered Clouds
4:00 PM 84.2 °F 92.3 °F 75.2 °F 74% 29.77 in 4.3 mi South 6.9 mph - N/A Thunderstorm Thunderstorm
5:00 PM 83 °F - 76 °F 73% 29.77 in 5 mi ENE 6.7 mph - - Thunderstorm Thunderstorm
5:00 PM 84.2 °F 92.3 °F 75.2 °F 74% 29.77 in 5.0 mi ENE 5.8 mph - N/A Thunderstorm Thunderstorm
6:00 PM 80.6 °F 86.2 °F 75.2 °F 84% 29.77 in 6.2 mi Variable 3.5 mph - N/A Thunderstorm Thunderstorm
7:00 PM 80.6 °F 87.1 °F 77.0 °F 89% 29.77 in 6.2 mi Variable 3.5 mph - N/A Thunderstorm Thunderstorm
8:00 PM 77 °F - 74 °F 87% 29.81 in 10 mi 4.5 mph - -   Partly Cloudy
8:00 PM 77.0 °F - 73.4 °F 89% 29.80 in 6.2 mi Variable 3.5 mph - N/A   Mostly Cloudy
9:00 PM 77.0 °F - 73.4 °F 89% 29.80 in 6.2 mi Calm Calm - N/A   Mostly Cloudy
10:00 PM 78.8 °F - 75.2 °F 89% 29.83 in 6.2 mi NE 4.6 mph - N/A   Mostly Cloudy
10:15 PM 78.8 °F - 75.2 °F 89% 29.83 in - North - - N/A Rain Heavy Rain
11:00 PM 75.2 °F - 73.4 °F 94% 29.86 in 4.3 mi South 8.1 mph - N/A Rain Rain